Location: *
(44.3683°N, 6.6958°E)
Time: 17:19:10
(UTC+00:00)

STARLINK-62 - Pass Details

Date: 14 October 2019
Orbit: 548 x 551 km, 53.0° (Epoch: 18 November)

Event Time Altitude Azimuth Distance (km) Brightness Sun altitude
Rises 17:51:19 0° 243° (WSW) 2,708 8.4 -11.5°
Reaches altitude 10° 17:53:34 10° 247° (WSW) 1,817 7.4 -11.9°
Maximum altitude 17:57:40 66° 330° (NNW) 603 3.9 -12.6°
Enters shadow 18:01:10 14° 51° (NE) 1,581 5.5 -13.2°
